User: anonymous   Login
Location: Unspecified
(0.0000°N, 0.0000°E)
Time: 03:05:27
(UTC+02:00)
Language:

NOAA 12 - Orbit

View from above orbital plane
View from above orbital plane
View from above satellite
View from above satellite

Ground track
Ground track

The orbit data is extracted from the following two-line orbital elements,

1 21263U 91032A   16177.53034361 -.00000017  00000-0  11279-4 0  9999
2 21263  98.5946 203.0283 0012660 240.3436 119.6484 14.25815496305907
Epoch (UTC): 25 June 2016 12:43:41
Eccentricity: 0.0012660
inclination: 98.5946°
perigee height: 796 km
apogee height: 815 km
right ascension of ascending node: 203.0283°
argument of perigee: 240.3436°
revolutions per day: 14.25815496
mean anomaly at epoch: 119.6484°
orbit number at epoch: 30590

The dashed part of the orbit path shows where the satellite is in the earth's shadow,  

DLR